ATLAS 5 CENTAUR R/B, 52942

Orbit data source: Space-Track

ATLAS 5 CENTAUR R/B, 52942 is space debris in GEO originally from a launch on Fri, 01 Jul 2022 UTC launched from the Air Force Eastern Test Range (AFETR). Debris objects in space refer to the collection of defunct objects orbiting the Earth. Examples of debris include non-operational satellites, rocket bodies, and fragments generated from explosions, collisions, or faulty payload assembly.

Not visible in the next 10 days
Identifier
52942, 2022-073C
Orbit
GEO
Country
Flag of USUS
Related business
Flag of USUnited Launch Alliance/Lockheed Martin (US)
Manufacturer
ULA Decatur
Mission
Spacecraft
Bus & Motor
CENTAUR SEC, RL10C-1
Mass
~2,020 kg wet, 2,020 kg dry
Launch date (UTC)
2022-07-01 (4 years ago)
Launch vehicle
Unknown
Launch site
Air Force Eastern Test Range (AFETR)
Object type
Payload
Rocket body
Debris
Shape & HBR
Cyl + 1 Nozzle, 5.8 m
Radar Cross Section
32.260 m²

Expand to show TLE details & history
Last TLE update: 3 days ago

TLE from 3 days ago
0 ATLAS 5 CENTAUR R/B
1 52942U 22073C   26170.97027809 -.00000182  00000-0  00000+0 0  9995
2 52942   4.0270  80.1531 0394961  53.4655 309.8067  0.92488496 10920
Epoch: 2026-06-19T23:17Z
TLE epoch observation values (Epoch: 2026-06-19T23:17:12.026Z)
Latitude
0.00001°
Longitude
-177.62347°
Altitude
37,029.322 km
Speed
3.067 km/s
True Right ascension
05h 19m 28s
True Declination
0° 00' 00"
Sunlit
Object was in daylight at epoch
Visualization orbit readout
Latitude
Unknown
Longitude
Unknown
Altitude
Unknown
Speed
Unknown
Apparent Right ascension
Unknown
Apparent Declination
Unknown
Sunlit
N/A
Visualization observer readout
Local Sidereal Time
00:55:21
Azimuth
Unknown
Elevation
Unknown
Doppler factor
Unknown
Orbital elements
Apogee altitude
39,878.718 km
Perigee altitude
36,363.62 km
Semi-major axis
44,499.306 km
Eccentricity
0.0395
Inclination
4.027°
RAAN
80.1531°
Arg. of periapsis
53.4655°
True anomaly
306.21888°
Mean anomaly
309.8067°
Eccentric anomaly
308.02405°
Mean motion
0.23121 °/min
Orbital period
1,557 mins
BSTAR
0
Loading maneuver chart data...
Computing Atmospheric mass density...
Loading historical data...
Loading historical data...
Loading historical data...
Loading historical data...
Loading historical data...
Loading historical data...
Loading historical data...
Other satellites on launch #73 in the year 2022 (2022-07-01 UTC)

Documentation

Showing up to 5 results
|